闪电 3-20星 (MOLNIYA 3-20)

导读

MOLNIYA 3-20(闪电3-20)是苏联/独联体(CIS)闪电系列通信卫星,1983年3月11日发射入轨。该卫星属军用通信卫星,依托闪电轨道设计,可高覆盖率覆盖北半球高纬度地区,为苏联及后续独联体国家提供远程通信、军事指挥支持,延续了闪电系列卫星适配高纬度通信需求的设计目标,是冷战时期苏联战略通信卫星体系的组成部分。

基本信息
目录编号:
13875
目录名称:
MOLNIYA 3-20
国际标识:
1983-015A
轨道中心:
EARTH
卫星名称:
闪电 3-20星
卫星全名:
闪电 3-20星 (MOLNIYA 3-20)
卫星状态:
在轨 (已飞行15844 天)
发射日期:
1983-03-11 UTC
国别 :
俄罗斯(独联体) (CIS)
星等 :
--
轨道信息
数据来源 国际轨道数据
星历时间: 2026-07-27T06:27:24+0800
23小时前
查看轨道信息
半长轴: 26563.925km
偏心率: 0.7120226
轨道倾角: 61.977°
近地点辐角 271.962°
升交点赤经 140.901°
平近点角 15.335°
近地点: 1271.673km
远地点: 39099.903km
周期: 718.122分钟
每日圈数: 2.005231
详细信息
平衡模式:
三轴稳定
覆盖范围:
全球
运营商:
俄罗斯国家航天集团
运营商所在国:
俄罗斯
制造商(研发单位):
普里克拉德诺伊·梅哈尼基设计局
制造商所在国:
俄罗斯联邦
使用方式:
暂无
卫星简介
闪电(Molniya (Satellite))系列卫星是苏联/俄罗斯于1965年至2004年间发射的军事和通信卫星。这些卫星使用高度偏心的椭圆轨道,称为Molniya轨道(即闪电轨道),在高纬度地区具有较长的停留时间。该卫星状态未知。
2D轨道图
3D轨道图
轨道高度分析图
轨道倾角分析图
轨道综合分析图
查看轨道综合分析图